• Em Portugal
  • Lista de países
  • Para 7 dias
  • Temperatura da água
  • Mapas de satélite
  • Mapa do tempo
  • Widgets de tempo
  • user-avatar
    Iniciar Sessão

    Previsão horária em Kemer

    Hoje, 24 Outubro, Quarta-feira

    Tempo Temperatura Precipitação Vento Pressão Humidade
    00:00 +21°C° 0.1 mm 2 m/s 746 mmHg 72%
    01:00 +21°C° 0.1 mm 2 m/s 746 mmHg 72%
    02:00 +20°C° 0.1 mm 2 m/s 746 mmHg 72%
    03:00 +20°C° 0.3 mm 2 m/s 745 mmHg 73%
    04:00 +20°C° 0.3 mm 2 m/s 745 mmHg 74%
    05:00 +20°C° 0.3 mm 2 m/s 745 mmHg 75%
    06:00 +20°C° 0.3 mm 2 m/s 745 mmHg 73%
    07:00 +21°C° 0.3 mm 3 m/s 745 mmHg 70%
    08:00 +22°C° 0.3 mm 3 m/s 745 mmHg 68%
    09:00 +24°C° 0.7 mm 3 m/s 745 mmHg 65%
    10:00 +24°C° 0.7 mm 3 m/s 744 mmHg 63%
    11:00 +25°C° 0.7 mm 4 m/s 744 mmHg 61%
    12:00 +25°C° 1.5 mm 3 m/s 744 mmHg 64%
    13:00 +24°C° 1.5 mm 3 m/s 743 mmHg 68%
    14:00 +24°C° 1.5 mm 3 m/s 743 mmHg 71%
    15:00 +24°C° 1 mm 2 m/s 743 mmHg 74%
    16:00 +23°C° 1 mm 2 m/s 743 mmHg 76%
    17:00 +21°C° 1 mm 2 m/s 743 mmHg 79%
    18:00 +21°C° 0.4 mm 2 m/s 743 mmHg 81%
    19:00 +20°C° 0.4 mm 2 m/s 742 mmHg 82%
    20:00 +20°C° 0.4 mm 2 m/s 742 mmHg 84%
    21:00 +20°C° 0.4 mm 3 m/s 742 mmHg 84%
    22:00 +20°C° 0.4 mm 4 m/s 742 mmHg 85%
    23:00 +20°C° 0.4 mm 4 m/s 742 mmHg 86%

    Amanhã, 25 Outubro, Quinta-feira

    Tempo Temperatura Precipitação Vento Pressão Humidade
    00:00 +20°C° 0.2 mm 4 m/s 742 mmHg 85%
    01:00 +20°C° 0.2 mm 4 m/s 741 mmHg 85%
    02:00 +20°C° 0.2 mm 4 m/s 741 mmHg 85%
    03:00 +20°C° 0.2 mm 4 m/s 741 mmHg 86%
    04:00 +20°C° 0.2 mm 4 m/s 740 mmHg 87%
    05:00 +19°C° 0.2 mm 4 m/s 740 mmHg 88%
    06:00 +20°C° 0.2 mm 4 m/s 740 mmHg 86%
    07:00 +20°C° 0.2 mm 4 m/s 740 mmHg 83%
    08:00 +20°C° 0.2 mm 3 m/s 740 mmHg 81%
    09:00 +21°C° 0.7 mm 4 m/s 740 mmHg 74%
    10:00 +22°C° 0.7 mm 4 m/s 740 mmHg 67%
    11:00 +22°C° 0.7 mm 4 m/s 740 mmHg 60%
    12:00 +22°C° 0.6 mm 5 m/s 740 mmHg 58%
    13:00 +22°C° 0.6 mm 5 m/s 740 mmHg 56%
    14:00 +22°C° 0.6 mm 5 m/s 740 mmHg 55%
    15:00 +21°C° 0.2 mm 6 m/s 740 mmHg 55%
    16:00 +19°C° 0.2 mm 6 m/s 741 mmHg 55%
    17:00 +17°C° 0.2 mm 7 m/s 741 mmHg 55%
    18:00 +16°C° 0 mm 8 m/s 742 mmHg 52%
    19:00 +15°C° 0 mm 8 m/s 743 mmHg 49%
    20:00 +13°C° 0 mm 9 m/s 744 mmHg 46%
    21:00 +12°C° 0 mm 9 m/s 745 mmHg 46%
    22:00 +12°C° 0 mm 9 m/s 745 mmHg 45%
    23:00 +11°C° 0 mm 8 m/s 746 mmHg 44%

    Depois de amanhã, 26 Outubro, Sexta-feira

    Tempo Temperatura Precipitação Vento Pressão Humidade
    00:00 +11°C° 0 mm 8 m/s 747 mmHg 42%
    01:00 +11°C° 0 mm 8 m/s 747 mmHg 40%
    02:00 +11°C° 0 mm 7 m/s 747 mmHg 37%
    03:00 +11°C° 0 mm 7 m/s 748 mmHg 35%
    04:00 +11°C° 0 mm 6 m/s 748 mmHg 33%
    05:00 +11°C° 0 mm 6 m/s 749 mmHg 31%
    06:00 +13°C° 0 mm 5 m/s 749 mmHg 30%
    07:00 +14°C° 0 mm 5 m/s 749 mmHg 29%
    08:00 +16°C° 0 mm 5 m/s 750 mmHg 27%
    09:00 +18°C° 0 mm 4 m/s 750 mmHg 26%
    10:00 +20°C° 0 mm 4 m/s 750 mmHg 25%
    11:00 +22°C° 0 mm 3 m/s 751 mmHg 24%
    12:00 +22°C° 0 mm 3 m/s 750 mmHg 26%
    13:00 +23°C° 0 mm 2 m/s 750 mmHg 28%
    14:00 +23°C° 0 mm 2 m/s 750 mmHg 30%
    15:00 +21°C° 0 mm 2 m/s 750 mmHg 37%
    16:00 +20°C° 0 mm 2 m/s 751 mmHg 45%
    17:00 +19°C° 0 mm 3 m/s 751 mmHg 53%
    18:00 +18°C° 0 mm 2 m/s 751 mmHg 52%
    19:00 +18°C° 0 mm 2 m/s 752 mmHg 52%
    20:00 +17°C° 0 mm 2 m/s 752 mmHg 52%
    21:00 +17°C° 0 mm 2 m/s 752 mmHg 52%
    22:00 +17°C° 0 mm 2 m/s 753 mmHg 51%
    23:00 +17°C° 0 mm 2 m/s 753 mmHg 51%

    27 Outubro, Sábado

    Tempo Temperatura Precipitação Vento Pressão Humidade
    00:00 +16°C° 0 mm 1 m/s 753 mmHg 51%
    01:00 +16°C° 0 mm 1 m/s 753 mmHg 50%
    02:00 +16°C° 0 mm 1 m/s 753 mmHg 50%
    03:00 +16°C° 0 mm 1 m/s 753 mmHg 52%
    04:00 +16°C° 0 mm 1 m/s 753 mmHg 54%
    05:00 +15°C° 0 mm 1 m/s 753 mmHg 56%
    06:00 +18°C° 0 mm 1 m/s 753 mmHg 52%
    07:00 +19°C° 0 mm 1 m/s 754 mmHg 49%
    08:00 +20°C° 0 mm 1 m/s 754 mmHg 45%
    09:00 +21°C° 0 mm 1 m/s 754 mmHg 44%
    10:00 +21°C° 0 mm 2 m/s 754 mmHg 42%
    11:00 +23°C° 0 mm 2 m/s 754 mmHg 40%
    12:00 +24°C° 0 mm 2 m/s 754 mmHg 42%
    13:00 +24°C° 0 mm 2 m/s 754 mmHg 43%
    14:00 +24°C° 0 mm 2 m/s 754 mmHg 45%
    15:00 +23°C° 0 mm 1 m/s 754 mmHg 52%
    16:00 +22°C° 0 mm 1 m/s 754 mmHg 59%
    17:00 +21°C° 0 mm 1 m/s 754 mmHg 66%
    18:00 +20°C° 0 mm 1 m/s 754 mmHg 69%
    19:00 +19°C° 0 mm 1 m/s 754 mmHg 72%
    20:00 +19°C° 0 mm 1 m/s 754 mmHg 74%
    21:00 +19°C° 0 mm 1 m/s 754 mmHg 75%
    22:00 +19°C° 0 mm 1 m/s 754 mmHg 75%
    23:00 +18°C° 0 mm 1 m/s 754 mmHg 76%

    28 Outubro, Domingo

    Tempo Temperatura Precipitação Vento Pressão Humidade
    00:00 +18°C° 0 mm 1 m/s 754 mmHg 76%
    01:00 +18°C° 0 mm 1 m/s 754 mmHg 76%
    02:00 +18°C° 0 mm 1 m/s 754 mmHg 76%
    03:00 +18°C° 0 mm 1 m/s 754 mmHg 75%
    04:00 +18°C° 0 mm 1 m/s 754 mmHg 75%
    05:00 +17°C° 0 mm 2 m/s 754 mmHg 74%
    06:00 +18°C° 0 mm 2 m/s 754 mmHg 68%
    07:00 +19°C° 0 mm 2 m/s 754 mmHg 63%
    08:00 +20°C° 0 mm 2 m/s 755 mmHg 57%
    09:00 +23°C° 0 mm 2 m/s 754 mmHg 51%
    10:00 +24°C° 0 mm 2 m/s 754 mmHg 45%
    11:00 +25°C° 0 mm 2 m/s 754 mmHg 39%
    12:00 +25°C° 0 mm 2 m/s 754 mmHg 39%
    13:00 +26°C° 0 mm 2 m/s 753 mmHg 40%
    14:00 +26°C° 0 mm 2 m/s 753 mmHg 40%
    15:00 +25°C° 0 mm 1 m/s 753 mmHg 47%
    16:00 +23°C° 0 mm 1 m/s 753 mmHg 55%
    17:00 +22°C° 0 mm 1 m/s 753 mmHg 63%
    18:00 +21°C° 0 mm 1 m/s 753 mmHg 64%
    19:00 +21°C° 0 mm 1 m/s 753 mmHg 65%
    20:00 +20°C° 0 mm 1 m/s 754 mmHg 66%
    21:00 +20°C° 0 mm 1 m/s 754 mmHg 64%
    22:00 +20°C° 0 mm 1 m/s 754 mmHg 63%
    23:00 +20°C° 0 mm 1 m/s 754 mmHg 62%

    29 Outubro, Segunda-feira

    Tempo Temperatura Precipitação Vento Pressão Humidade
    00:00 +20°C° 0 mm 1 m/s 753 mmHg 57%
    01:00 +18°C° 0 mm 2 m/s 753 mmHg 52%
    02:00 +18°C° 0 mm 2 m/s 753 mmHg 47%
    03:00 +18°C° 0 mm 2 m/s 753 mmHg 43%
    04:00 +18°C° 0 mm 2 m/s 753 mmHg 39%
    05:00 +18°C° 0 mm 2 m/s 753 mmHg 35%
    06:00 +20°C° 0 mm 2 m/s 753 mmHg 35%
    07:00 +21°C° 0 mm 2 m/s 753 mmHg 34%
    08:00 +24°C° 0 mm 2 m/s 754 mmHg 34%
    09:00 +25°C° 0 mm 2 m/s 753 mmHg 31%
    10:00 +26°C° 0 mm 2 m/s 753 mmHg 28%
    11:00 +28°C° 0 mm 2 m/s 753 mmHg 25%
    12:00 +28°C° 0 mm 2 m/s 753 mmHg 27%
    13:00 +28°C° 0 mm 2 m/s 753 mmHg 28%
    14:00 +28°C° 0 mm 2 m/s 752 mmHg 29%
    15:00 +26°C° 0 mm 1 m/s 752 mmHg 36%
    16:00 +24°C° 0 mm 1 m/s 752 mmHg 44%
    17:00 +23°C° 0 mm 1 m/s 752 mmHg 52%
    18:00 +22°C° 0 mm 1 m/s 753 mmHg 52%
    19:00 +22°C° 0 mm 1 m/s 753 mmHg 51%
    20:00 +21°C° 0 mm 1 m/s 753 mmHg 51%
    21:00 +21°C° 0 mm 1 m/s 753 mmHg 49%
    22:00 +21°C° 0 mm 1 m/s 753 mmHg 47%
    23:00 +20°C° 0 mm 1 m/s 753 mmHg 45%
    Mostrar mais